Flight Track Log - Related Links

Times and Time Zones

All times are in EDT time to prevent confusion due to time zone crossing. See the CPT7773 flight status page for this flight to view local times or setup timezone preferences in your user account.

Time Position Orientation Groundspeed Altitude Reporting Facility
EDT Latitude Longitude Course Direction KTS MPH feet Rate Location/Type
Thu 07:51:12 PM 44.4831 -108.9147 120° Southeast 117 135 8,200  Level Salt Lake Center
Thu 07:52:14 PM 44.4631 -108.8767 126° Southeast 122 140 9,200 976 Climbing Salt Lake Center
Thu 07:53:15 PM 44.4414 -108.8358 127° Southeast 128 147 10,200 829 Climbing Salt Lake Center
Thu 07:54:17 PM 44.4139 -108.7858 128° Southeast 137 158 10,900 387 Climbing Salt Lake Center
Thu 07:55:19 PM 44.3881 -108.7381 127° Southeast 147 169 11,000 48 Climbing Salt Lake Center
Thu 07:56:00 PM 44.4009 -108.7619 120° Southeast  Level FlightAware Approximate
Thu 07:56:21 PM 44.3519 -108.6736 128° Southeast 168 193 11,000  Level Salt Lake Center
Thu 07:57:22 PM 44.3228 -108.6144 125° Southeast 183 211 11,000  Level Salt Lake Center
Thu 07:58:24 PM 44.2869 -108.5486 127° Southeast 189 217 11,000 -48 Level Salt Lake Center
Thu 07:59:26 PM 44.2569 -108.4936 127° Southeast 188 216 10,900 -48 Descending Salt Lake Center
Thu 08:00:28 PM 44.2231 -108.4303 127° Southeast 186 214 10,900 49 Level Salt Lake Center
Thu 08:01:29 PM 44.1947 -108.3761 126° Southeast 183 211 11,000 49 Climbing Salt Lake Center
Thu 08:02:31 PM 44.1606 -108.3139 127° Southeast 182 209 11,000  Level Salt Lake Center
Thu 08:03:33 PM 44.1325 -108.2606 126° Southeast 181 208 11,000 -48 Level Salt Lake Center
Thu 08:04:35 PM 44.1025 -108.2078 128° Southeast 181 208 10,900  Descending Salt Lake Center
Thu 08:05:36 PM 44.0689 -108.1469 128° Southeast 180 207 11,000 49 Climbing Salt Lake Center
Thu 08:06:38 PM 44.0400 -108.0928 127° Southeast 180 207 11,000 48 Level Salt Lake Center
Thu 08:07:40 PM 44.0058 -108.0297 127° Southeast 182 209 11,100 49 Climbing Salt Lake Center
Thu 08:08:41 PM 43.9756 -107.9753 128° Southeast 184 212 11,100  Level Salt Lake Center
Thu 08:09:43 PM 43.9408 -107.9133 128° Southeast 184 212 11,100  Level Salt Lake Center
Thu 08:10:45 PM 43.9125 -107.8575 125° Southeast 184 212 11,100 -49 Level Salt Lake Center
Thu 08:11:46 PM 43.8853 -107.8017 124° Southeast 183 211 11,000  Descending Salt Lake Center
Thu 08:12:48 PM 43.8531 -107.7372 125° Southeast 183 211 11,100 48 Climbing Salt Lake Center
Thu 08:13:50 PM 43.8244 -107.6817 126° Southeast 183 211 11,100  Level Salt Lake Center
Thu 08:14:51 PM 43.7900 -107.6175 127° Southeast 185 213 11,100  Level Salt Lake Center
Thu 08:15:53 PM 43.7622 -107.5619 125° Southeast 185 213 11,100  Level Salt Lake Center
Thu 08:16:55 PM 43.7283 -107.4981 126° Southeast 184 212 11,100 -48 Level Salt Lake Center
Thu 08:17:57 PM 43.7006 -107.4419 124° Southeast 184 212 11,000  Descending Salt Lake Center
Thu 08:18:58 PM 43.6667 -107.3783 126° Southeast 185 213 11,100 49 Climbing Salt Lake Center
Thu 08:20:00 PM 43.6389 -107.3219 124° Southeast 184 212 11,100  Level Salt Lake Center
Thu 08:21:02 PM 43.6117 -107.2703 126° Southeast 180 207 11,100 -48 Level Salt Lake Center
Thu 08:22:04 PM 43.5797 -107.2067 125° Southeast 179 206 11,000  Descending Salt Lake Center
Thu 08:23:06 PM 43.5506 -107.1550 128° Southeast 180 207 11,100 49 Climbing Salt Lake Center
Thu 08:24:07 PM 43.5169 -107.0914 126° Southeast 182 209 11,100  Level Salt Lake Center
Thu 08:25:09 PM 43.4883 -107.0389 127° Southeast 181 208 11,100  Level Salt Lake Center
Thu 08:26:11 PM 43.4572 -106.9803 126° Southeast 172 198 11,100 -48 Level Salt Lake Center
Thu 08:27:13 PM 43.4297 -106.9261 125° Southeast 173 199 11,000  Descending Salt Lake Center
Thu 08:28:15 PM 43.4022 -106.8739 126° Southeast 175 201 11,100 46 Climbing Salt Lake Center
Thu 08:29:24 PM 43.3719 -106.8097 123° Southeast 176 203 11,100 -46 Level Denver Center
Thu 08:30:25 PM 43.3300 -106.7597 139° Southeast 181 208 11,000  Descending Denver Center
Thu 08:31:27 PM 43.2856 -106.7342 157° South 180 207 11,100  Climbing Denver Center
Thu 08:32:29 PM 43.2358 -106.6975 152° Southeast 181 208 11,000 -48 Descending Denver Center
Thu 08:33:31 PM 43.1936 -106.6681 153° Southeast 179 206 11,000 -435 Level Denver Center
Thu 08:34:33 PM 43.1453 -106.6253 147° Southeast 184 212 10,100 -823 Descending Denver Center
Thu 08:35:35 PM 43.1022 -106.5917 150° Southeast 184 212 9,300 -919 Descending Denver Center
Thu 08:36:37 PM 43.0489 -106.5525 152° Southeast 188 216 8,200 -919 Descending Denver Center
Thu 08:37:39 PM 43.0047 -106.5139 147° Southeast 193 222 7,400 -581 Descending Denver Center
Thu 08:38:41 PM 42.9542 -106.4678 146° Southeast 194 223 7,000 -387 Descending Denver Center
Thu 08:40:00 PM 42.9080 -106.4644 151° Southeast  Level Estimated
Thu 08:47:00 PM 42.9080 -106.4644 151° Southeast  Level Estimated
Thu 08:48:00 PM 42.9080 -106.4644 151° Southeast  Level Estimated

Login

Don't have an account? Register now (free) for customized features, flight alerts, and more!